Terminal Aerodrome Forecast
Issued by NWS

Home | Current Version | Previous Version | Text Only | Print | Product List | Glossary On
Versions: 1 2 3 4 5 6 7 8 9 10 11 12 13
646
FTUS45 KRIW 050523
TAFJAC
TAF
KJAC 050523Z 0506/0606 VRB06KT P6SM FEW080 SCT110
     FM051900 19010G20KT P6SM VCSH SCT050 BKN080
     FM060200 02007KT P6SM VCSH SCT040 BKN070
      AMD LTD TO CLD VIS AND WIND=

USA.gov is the U.S. government's official web portal to all federal, state and local government web resources and services.